sat.trackr.live / text

‹ back to catalog

SHIJIAN-6 02B (SJ-6 02B)

NORAD 29506 · 2006-046B

PAYLOAD ACTIVE UNKNOWN

§ Identity

Operator
Country
PRC
Launch date
2006-10-23
Launch site
TAISC
Launch vehicle
Mass (kg)
RCS (m²)
2.48

Purposes: science

External: N2YO · Heavens-Above · Gunter

§ Orbital elements

Epoch: 2026-05-25T03:39:48.337056Z

Period
95.92 min
Inclination
97.7165°
Eccentricity
0.0012932
Mean motion
15.01303703 rev/d
Perigee alt
553.9 km
Apogee alt
571.9 km
Semi-major
6,941.0 km
B*
9.9853e-5
RAAN
174.3539°
Arg perigee
130.9713°
Mean anomaly
229.2632°
Rev number
6,728

§ Raw data

SHIJIAN-6 02B (SJ-6 02B)1 29506U 06046B   26145.15264279  .00001226  00000+0  99853-4 0  99902 29506  97.7165 174.3539 0012932 130.9713 229.2632 15.01303703 67284

JSON: /api/v1/satellites/29506 · /tle

For live sub-satellite position, see the globe view (requires WebGL).

§ Visibility from observer

Set your observer location to see the next 7 days of passes ≥ 10°. The values pass through the URL so the page stays shareable.

No JS? Fill the form by hand. The geolocation button needs JavaScript.

§ Radio — SatNOGS DB

ModeDescriptionDownlinkUplink
FM S-band telemetry 2.256 GHz

1 transmitter · refreshed weekly from db.satnogs.org